Location: Unspecified
(51.3762°N, 0.0000°E)
Time: 06:50:04
(UTC+00:00)

nSIGHT-1 - Pass Details

Date: 02 September 2019
Orbit: 342 x 349 km, 51.6° (Epoch: 17 September)

Event Time Altitude Azimuth Distance (km) Brightness Sun altitude
Exits shadow 03:51:23 24° 265° (W) 772 ? -12.7°
Maximum altitude 03:52:48 47° 202° (SSW) 464 ? -12.5°
Drops below altitude 10° 03:55:35 10° 127° (SE) 1,293 ? -12.1°
Sets 03:57:37 0° 121° (ESE) 2,133 ? -11.8°
